IBE1954 LECH-LSZA

Flight info

Callsign IBE1954
Flight time 1h 16m
Altitude 39000
Route NAVAR2P NAVAR T412 LOTOS DCT BCN DCT DIBER UN870 SOSUR N86 TINOT DCT NIBIK DCT STP DCT RAPED Y15 PIGOS DCT DESIP L615 SRN SRN6L
Aircraft A20N/M-SDE2E3FGHIRWXY/LB1

Departure

Time 2026-04-15 21:12
Airport Castellón-Costa Azahar Airport (LECH)

Arrival

Time 2026-04-15 22:29
Airport Lugano Airport (LSZA)
Time Latitude Longitude Altitude Speed Heading
2026-04-15 20:49 40.20592 0.06636 1114 ft 0 kts 194°
2026-04-15 21:03 40.20610 0.06637 1107 ft 4 kts 153°
2026-04-15 21:03 40.20631 0.06620 1108 ft 4 kts 149°
2026-04-15 21:03 40.20668 0.06595 1108 ft 5 kts 172°
2026-04-15 21:04 40.20694 0.06606 1113 ft 0 kts 234°
2026-04-15 21:08 40.20691 0.06600 1106 ft 4 kts 234°
2026-04-15 21:08 40.20659 0.06537 1107 ft 12 kts 238°
2026-04-15 21:08 40.20631 0.06449 1108 ft 5 kts 294°
2026-04-15 21:08 40.20664 0.06425 1109 ft 8 kts 329°
2026-04-15 21:09 40.20703 0.06346 1110 ft 12 kts 263°
2026-04-15 21:09 40.20653 0.06226 1104 ft 19 kts 239°
2026-04-15 21:09 40.20674 0.06115 1104 ft 14 kts 326°
2026-04-15 21:09 40.20683 0.06109 1100 ft 0 kts 328°
2026-04-15 21:11 40.20693 0.06100 1104 ft 5 kts 328°
2026-04-15 21:11 40.20754 0.06061 1097 ft 14 kts 355°
2026-04-15 21:11 40.20821 0.06152 1105 ft 18 kts 56°
2026-04-15 21:11 40.21080 0.06677 1122 ft 119 kts 57°
2026-04-15 21:12 40.21661 0.07849 1426 ft 173 kts 57°
2026-04-15 21:12 40.22351 0.09248 2249 ft 193 kts 57°
2026-04-15 21:12 40.23098 0.10804 3170 ft 211 kts 59°
2026-04-15 21:12 40.23603 0.12641 4109 ft 231 kts 81°
2026-04-15 21:13 40.23796 0.14829 5082 ft 251 kts 72°
2026-04-15 21:13 40.24489 0.17002 6166 ft 266 kts 60°
2026-04-15 21:13 40.25402 0.19149 7453 ft 272 kts 58°
2026-04-15 21:13 40.26330 0.21325 8877 ft 275 kts 59°
2026-04-15 21:14 40.27234 0.23571 10237 ft 281 kts 60°
2026-04-15 21:14 40.28126 0.25905 11164 ft 301 kts 61°
2026-04-15 21:14 40.29079 0.28481 11799 ft 327 kts 62°
2026-04-15 21:14 40.30089 0.31256 12591 ft 343 kts 62°
2026-04-15 21:15 40.31121 0.34115 13727 ft 350 kts 62°
2026-04-15 21:15 40.32176 0.37037 14737 ft 357 kts 62°
2026-04-15 21:15 40.32885 0.38998 15415 ft 363 kts 62°
2026-04-15 21:15 40.34396 0.43155 15978 ft 394 kts 62°
2026-04-15 21:16 40.35600 0.46455 16242 ft 418 kts 62°
2026-04-15 21:16 40.36886 0.49980 16601 ft 435 kts 62°
2026-04-15 21:16 40.38196 0.53583 17383 ft 440 kts 62°
2026-04-15 21:16 40.39069 0.55996 17926 ft 443 kts 62°
2026-04-15 21:17 40.40396 0.59676 18685 ft 449 kts 62°
2026-04-15 21:17 40.41742 0.63411 19336 ft 454 kts 62°
2026-04-15 21:17 40.43104 0.67191 19978 ft 460 kts 62°
2026-04-15 21:17 40.44479 0.71008 20605 ft 466 kts 62°
2026-04-15 21:18 40.45871 0.74876 21227 ft 471 kts 62°
2026-04-15 21:18 40.47277 0.78791 21863 ft 476 kts 62°
2026-04-15 21:18 40.48700 0.82755 22430 ft 482 kts 62°
2026-04-15 21:18 40.50115 0.86702 22991 ft 487 kts 62°
2026-04-15 21:19 40.51563 0.90750 23542 ft 492 kts 62°
2026-04-15 21:19 40.53029 0.94844 24035 ft 496 kts 61°
2026-04-15 21:19 40.54700 0.98828 24486 ft 498 kts 55°
2026-04-15 21:19 40.56682 1.02556 24880 ft 499 kts 49°
2026-04-15 21:20 40.58952 1.06013 25205 ft 499 kts 44°
2026-04-15 21:20 40.61315 1.09386 25502 ft 502 kts 44°
2026-04-15 21:20 40.63682 1.12787 25789 ft 504 kts 44°
2026-04-15 21:20 40.66053 1.16204 26140 ft 503 kts 44°
2026-04-15 21:21 40.68388 1.19572 26476 ft 503 kts 44°
2026-04-15 21:21 40.70750 1.22980 26838 ft 503 kts 44°
2026-04-15 21:21 40.73108 1.26386 27190 ft 502 kts 44°
2026-04-15 21:21 40.75461 1.29787 27529 ft 502 kts 44°
2026-04-15 21:22 40.77819 1.33200 27890 ft 502 kts 44°
2026-04-15 21:22 40.80175 1.36612 28235 ft 502 kts 44°
2026-04-15 21:22 40.82523 1.40017 28587 ft 501 kts 44°
2026-04-15 21:22 40.84871 1.43427 28932 ft 501 kts 43°
2026-04-15 21:23 40.87216 1.46835 29273 ft 501 kts 43°
2026-04-15 21:23 40.89559 1.50244 29619 ft 501 kts 43°
2026-04-15 21:23 40.91902 1.53657 29986 ft 500 kts 44°
2026-04-15 21:23 40.94207 1.57020 30421 ft 498 kts 43°
2026-04-15 21:24 40.96534 1.60418 30757 ft 498 kts 43°
2026-04-15 21:24 40.98863 1.63822 31100 ft 498 kts 43°
2026-04-15 21:24 41.01186 1.67223 31460 ft 498 kts 43°
2026-04-15 21:24 41.03510 1.70626 31831 ft 498 kts 43°
2026-04-15 21:25 41.05833 1.74034 32193 ft 498 kts 43°
2026-04-15 21:25 41.08155 1.77445 32557 ft 498 kts 43°
2026-04-15 21:25 41.10479 1.80860 32914 ft 498 kts 43°
2026-04-15 21:25 41.12772 1.84235 33252 ft 498 kts 43°
2026-04-15 21:26 41.15094 1.87656 33575 ft 499 kts 43°
2026-04-15 21:26 41.17416 1.91082 33937 ft 499 kts 43°
2026-04-15 21:26 41.19730 1.94501 34364 ft 496 kts 43°
2026-04-15 21:26 41.22037 1.97914 34692 ft 495 kts 43°
2026-04-15 21:27 41.24338 2.01319 35004 ft 495 kts 43°
2026-04-15 21:27 41.26633 2.04719 35311 ft 494 kts 43°
2026-04-15 21:27 41.28875 2.08205 35615 ft 497 kts 47°
2026-04-15 21:27 41.30861 2.12000 35918 ft 500 kts 54°
2026-04-15 21:28 41.32531 2.16013 36209 ft 504 kts 60°
2026-04-15 21:28 41.33999 2.20250 36483 ft 505 kts 62°
2026-04-15 21:28 41.35475 2.24498 36764 ft 504 kts 61°
2026-04-15 21:28 41.36954 2.28739 37059 ft 504 kts 61°
2026-04-15 21:29 41.38420 2.32953 37465 ft 500 kts 61°
2026-04-15 21:29 41.39879 2.37163 37759 ft 499 kts 61°
2026-04-15 21:29 41.41336 2.41372 38029 ft 499 kts 61°
2026-04-15 21:29 41.42786 2.45573 38290 ft 499 kts 61°
2026-04-15 21:30 41.44215 2.49721 38550 ft 498 kts 61°
2026-04-15 21:30 41.45660 2.53922 38809 ft 498 kts 61°
2026-04-15 21:30 41.47106 2.58134 39024 ft 497 kts 61°
2026-04-15 21:30 41.48546 2.62335 39204 ft 497 kts 62°
2026-04-15 21:31 41.51391 2.70653 39200 ft 492 kts 62°
2026-04-15 21:32 41.55660 2.83177 39198 ft 494 kts 62°
2026-04-15 21:32 41.58499 2.91536 39192 ft 493 kts 62°
2026-04-15 21:33 41.61309 2.99838 39193 ft 494 kts 62°
2026-04-15 21:33 41.64132 3.08204 39196 ft 491 kts 62°
2026-04-15 21:34 41.66929 3.16516 39188 ft 490 kts 62°
2026-04-15 21:34 41.69726 3.24851 39191 ft 490 kts 62°
2026-04-15 21:35 41.72497 3.33136 39195 ft 490 kts 62°
2026-04-15 21:35 41.75290 3.41507 39189 ft 491 kts 62°
2026-04-15 21:36 41.78068 3.49864 39190 ft 491 kts 62°
2026-04-15 21:36 41.80840 3.58228 39187 ft 491 kts 62°
2026-04-15 21:37 41.83600 3.66580 39186 ft 491 kts 62°
2026-04-15 21:37 41.86362 3.74966 39187 ft 491 kts 62°
2026-04-15 21:38 41.89116 3.83352 39182 ft 488 kts 62°
2026-04-15 21:38 41.91827 3.91631 39184 ft 488 kts 62°
2026-04-15 21:39 41.94560 3.99999 39184 ft 489 kts 63°
2026-04-15 21:39 41.97285 4.08374 39179 ft 489 kts 63°
2026-04-15 21:40 41.99983 4.16692 39177 ft 489 kts 63°
2026-04-15 21:40 42.02689 4.25059 39176 ft 483 kts 63°
2026-04-15 21:41 42.05370 4.33371 39173 ft 484 kts 63°
2026-04-15 21:41 42.08689 4.41179 39173 ft 478 kts 50°
2026-04-15 21:42 42.13129 4.47677 39170 ft 473 kts 38°
2026-04-15 21:42 42.18051 4.53577 39167 ft 473 kts 38°
2026-04-15 21:43 42.22959 4.59503 39162 ft 471 kts 38°
2026-04-15 21:43 42.27830 4.65393 39161 ft 471 kts 38°
2026-04-15 21:44 42.32713 4.71305 39167 ft 472 kts 39°
2026-04-15 21:44 42.37608 4.77247 39154 ft 472 kts 39°
2026-04-15 21:45 42.42465 4.83156 39151 ft 472 kts 39°
2026-04-15 21:45 42.47351 4.89112 39148 ft 472 kts 39°
2026-04-15 21:46 42.52231 4.95081 39150 ft 475 kts 40°
2026-04-15 21:46 42.56621 5.01742 39151 ft 475 kts 51°
2026-04-15 21:47 42.60151 5.09382 39150 ft 479 kts 59°
2026-04-15 21:47 42.63115 5.17309 39146 ft 479 kts 61°
2026-04-15 21:48 42.66058 5.25378 39142 ft 479 kts 61°
2026-04-15 21:48 42.68049 5.34025 39139 ft 485 kts 83°
2026-04-15 21:49 42.69271 5.42886 39137 ft 475 kts 65°
2026-04-15 21:49 42.70776 5.46863 39136 ft 472 kts 54°
2026-04-15 21:49 42.72653 5.50520 39132 ft 471 kts 51°
2026-04-15 21:50 42.76425 5.57824 39125 ft 472 kts 54°
2026-04-15 21:50 42.79943 5.65337 39126 ft 473 kts 56°
2026-04-15 21:51 42.83380 5.72970 39127 ft 470 kts 56°
2026-04-15 21:51 42.86760 5.80525 39129 ft 467 kts 56°
2026-04-15 21:52 42.90149 5.88101 39125 ft 468 kts 56°
2026-04-15 21:52 42.93538 5.95698 39128 ft 468 kts 56°
2026-04-15 21:53 42.96919 6.03296 39128 ft 468 kts 56°
2026-04-15 21:53 43.00294 6.10901 39131 ft 464 kts 56°
2026-04-15 21:54 43.03606 6.18384 39131 ft 461 kts 56°
2026-04-15 21:54 43.06928 6.25904 39130 ft 462 kts 57°
2026-04-15 21:55 43.10235 6.33410 39130 ft 463 kts 57°
2026-04-15 21:55 43.13557 6.40973 39128 ft 463 kts 57°
2026-04-15 21:56 43.16867 6.48530 39129 ft 460 kts 57°
2026-04-15 21:56 43.20147 6.56036 39125 ft 459 kts 57°
2026-04-15 21:57 43.23606 6.63322 39120 ft 457 kts 51°
2026-04-15 21:57 43.27359 6.70384 39123 ft 458 kts 52°
2026-04-15 21:58 43.31101 6.77470 39126 ft 458 kts 52°
2026-04-15 21:58 43.34842 6.84575 39137 ft 458 kts 52°
2026-04-15 21:59 43.38543 6.91625 39129 ft 454 kts 51°
2026-04-15 21:59 43.42248 6.98688 39126 ft 455 kts 52°
2026-04-15 22:00 43.45946 7.05753 39128 ft 457 kts 52°
2026-04-15 22:00 43.49656 7.12867 39130 ft 457 kts 52°
2026-04-15 22:01 43.53365 7.19996 39128 ft 457 kts 52°
2026-04-15 22:01 43.57049 7.27093 39126 ft 457 kts 52°
2026-04-15 22:02 43.60756 7.34249 39132 ft 460 kts 52°
2026-04-15 22:02 43.64479 7.41455 39128 ft 460 kts 52°
2026-04-15 22:03 43.68194 7.48667 39128 ft 460 kts 52°
2026-04-15 22:03 43.71277 7.54663 39127 ft 460 kts 53°
2026-04-15 22:04 43.74969 7.61864 39130 ft 452 kts 52°
2026-04-15 22:04 43.78596 7.68933 39129 ft 455 kts 51°
2026-04-15 22:05 43.82934 7.75268 39132 ft 451 kts 38°
2026-04-15 22:05 43.88166 7.80019 39140 ft 449 kts 26°
2026-04-15 22:06 43.93668 7.84003 39141 ft 449 kts 26°
2026-04-15 22:06 43.99217 7.88054 39153 ft 451 kts 26°
2026-04-15 22:07 44.04770 7.92109 39152 ft 450 kts 26°
2026-04-15 22:07 44.10275 7.96135 39151 ft 450 kts 26°
2026-04-15 22:08 44.15778 8.00169 39163 ft 445 kts 26°
2026-04-15 22:08 44.21297 8.04218 39167 ft 447 kts 26°
2026-04-15 22:09 44.26614 8.08131 39163 ft 447 kts 26°
2026-04-15 22:09 44.32124 8.12194 39162 ft 448 kts 26°
2026-04-15 22:10 44.37613 8.16250 39164 ft 449 kts 26°
2026-04-15 22:10 44.43131 8.20336 39166 ft 449 kts 26°
2026-04-15 22:11 44.48649 8.24431 39165 ft 449 kts 26°
2026-04-15 22:11 44.54165 8.28533 39165 ft 449 kts 26°
2026-04-15 22:12 44.59683 8.32646 39165 ft 449 kts 26°
2026-04-15 22:12 44.62419 8.34689 39170 ft 438 kts 26°
2026-04-15 22:12 44.65057 8.36666 39161 ft 421 kts 26°
2026-04-15 22:12 44.67618 8.38584 39052 ft 415 kts 26°
2026-04-15 22:13 44.70159 8.40483 38833 ft 421 kts 26°
2026-04-15 22:13 44.72761 8.42431 38413 ft 424 kts 26°
2026-04-15 22:13 44.75366 8.44384 37838 ft 424 kts 26°
2026-04-15 22:13 44.77976 8.46343 36829 ft 429 kts 26°
2026-04-15 22:14 44.80635 8.48342 35789 ft 434 kts 26°
2026-04-15 22:14 44.83303 8.50350 34935 ft 434 kts 26°
2026-04-15 22:14 44.85973 8.52362 34017 ft 435 kts 26°
2026-04-15 22:14 44.88662 8.54391 32963 ft 438 kts 26°
2026-04-15 22:15 44.91339 8.56412 32036 ft 437 kts 27°
2026-04-15 22:15 44.94035 8.58407 31025 ft 438 kts 24°
2026-04-15 22:15 44.96807 8.60171 29625 ft 437 kts 22°
2026-04-15 22:15 44.99601 8.61819 27778 ft 442 kts 21°
2026-04-15 22:16 45.02436 8.63481 26466 ft 436 kts 21°
2026-04-15 22:16 45.05185 8.65124 25621 ft 420 kts 22°
2026-04-15 22:16 45.07801 8.66715 25028 ft 399 kts 22°
2026-04-15 22:16 45.10309 8.68254 24296 ft 386 kts 22°
2026-04-15 22:17 45.12730 8.69749 23578 ft 375 kts 22°
2026-04-15 22:17 45.15071 8.71197 22893 ft 361 kts 22°
2026-04-15 22:17 45.17389 8.72632 22207 ft 374 kts 22°
2026-04-15 22:17 45.19887 8.74175 21458 ft 406 kts 22°
2026-04-15 22:18 45.22500 8.75793 20714 ft 408 kts 22°
2026-04-15 22:18 45.25069 8.77390 19889 ft 399 kts 22°
2026-04-15 22:18 45.27570 8.78947 18812 ft 394 kts 22°
2026-04-15 22:18 45.30062 8.80500 17553 ft 388 kts 23°
2026-04-15 22:19 45.32525 8.82034 16321 ft 381 kts 23°
2026-04-15 22:19 45.34930 8.83534 15136 ft 374 kts 23°
2026-04-15 22:19 45.37302 8.85015 14001 ft 369 kts 23°
2026-04-15 22:19 45.39630 8.86469 12770 ft 363 kts 23°
2026-04-15 22:20 45.41895 8.87884 11608 ft 358 kts 23°
2026-04-15 22:20 45.44166 8.89305 10446 ft 354 kts 23°
2026-04-15 22:20 45.46379 8.90691 9858 ft 336 kts 23°
2026-04-15 22:20 45.48437 8.91982 9573 ft 310 kts 24°
2026-04-15 22:21 45.50335 8.93174 9223 ft 290 kts 23°
2026-04-15 22:21 45.52161 8.94321 8657 ft 282 kts 23°
2026-04-15 22:21 45.53915 8.95424 8402 ft 281 kts 23°
2026-04-15 22:21 45.55725 8.96562 8280 ft 282 kts 23°
2026-04-15 22:22 45.57524 8.97693 7883 ft 282 kts 23°
2026-04-15 22:22 45.59301 8.98812 7421 ft 281 kts 23°
2026-04-15 22:22 45.61085 8.99936 6966 ft 279 kts 23°
2026-04-15 22:22 45.62880 9.01062 6497 ft 277 kts 21°
2026-04-15 22:23 45.64738 9.01504 6226 ft 268 kts 354°
2026-04-15 22:23 45.66502 9.00719 6162 ft 272 kts 333°
2026-04-15 22:23 45.68176 8.99467 6155 ft 270 kts 332°
2026-04-15 22:23 45.69837 8.98201 6155 ft 271 kts 332°
2026-04-15 22:24 45.71499 8.96930 6154 ft 271 kts 332°
2026-04-15 22:24 45.73161 8.95662 6156 ft 271 kts 332°
2026-04-15 22:24 45.74823 8.94397 6156 ft 271 kts 332°
2026-04-15 22:24 45.76474 8.93094 6156 ft 270 kts 330°
2026-04-15 22:25 45.78053 8.91763 6155 ft 254 kts 329°
2026-04-15 22:25 45.79525 8.90501 6156 ft 242 kts 329°
2026-04-15 22:25 45.81006 8.89234 6156 ft 243 kts 329°
2026-04-15 22:25 45.82428 8.88026 6160 ft 239 kts 329°
2026-04-15 22:26 45.83854 8.86822 6157 ft 236 kts 329°
2026-04-15 22:26 45.85257 8.85638 6157 ft 237 kts 329°
2026-04-15 22:26 45.86763 8.84751 6083 ft 233 kts 351°
2026-04-15 22:26 45.88332 8.84999 5865 ft 222 kts 17°
2026-04-15 22:27 45.89754 8.85720 5518 ft 216 kts 19°
2026-04-15 22:27 45.91208 8.86526 4652 ft 231 kts 21°
2026-04-15 22:27 45.92766 8.87378 3655 ft 247 kts 20°
2026-04-15 22:27 45.94407 8.88226 2810 ft 251 kts 17°
2026-04-15 22:28 45.96067 8.88947 1952 ft 253 kts 17°
2026-04-15 22:28 45.97744 8.89734 1151 ft 247 kts 18°
2026-04-15 22:28 45.99209 8.90460 1027 ft 197 kts 18°
2026-04-15 22:28 46.00379 8.91034 905 ft 148 kts 19°
2026-04-15 22:29 46.00907 8.91294 899 ft 15 kts 19°
2026-04-15 22:29 46.01016 8.91330 902 ft 13 kts 357°
2026-04-15 22:29 46.01035 8.91359 902 ft 2 kts 118°
2026-04-15 22:29 46.01026 8.91355 902 ft 3 kts 201°
2026-04-15 22:30 46.00961 8.91317 900 ft 16 kts 199°
2026-04-15 22:30 46.00831 8.91255 900 ft 22 kts 199°
2026-04-15 22:30 46.00668 8.91178 902 ft 27 kts 200°
2026-04-15 22:30 46.00489 8.91089 907 ft 27 kts 198°
2026-04-15 22:31 46.00453 8.91019 905 ft 11 kts 281°
2026-04-15 22:31 46.00426 8.90943 903 ft 10 kts 200°
2026-04-15 22:31 46.00338 8.90902 905 ft 16 kts 198°
2026-04-15 22:31 46.00317 8.90855 903 ft 2 kts 313°
2026-04-15 22:32 46.00354 8.90860 903 ft 9 kts 14°
2026-04-15 22:32 46.00363 8.90865 903 ft 0 kts 20°
2026-04-15 22:32 46.00364 8.90865 903 ft 0 kts 18°